Flag for Brazil Weather past 2 weeks in Belém, Para, Brazil

Now
79 °F

Clear.


Feels Like: 82 °F
Forecast: 74 / 90 °F
Wind: 7 mph from Northeast

Location: Belem Aeroporto

Current Time: Sep 23, 2014 at 9:58:26 PM

Latest Report: Sep 23, 2014 at 9:00 PM


Visibility: 10 mi

Pressure: 29.89 "Hg

Humidity: 79%

Dew point: 72 °F

Location of BelémLocation

Historic Weather in Belém — Graph

°F

Belém temperature yesterday

Maximum temperature yesterday: 86 °F (at 3:00 PM)
Minimum temperature yesterday: 73 °F (at 4:00 AM)
Average temperature yesterday: 80 °F

Past Weeks' High & Low Weather Summary

 TemperatureHumidityPressure
High91 °F (Sep 14, 2:00 PM)100% (Sep 9, 2:00 AM)30.01 "Hg (Sep 9, 2:00 AM)
Low36 °F (Sep 18, 4:00 PM)49% (Sep 13, 2:00 PM)29.77 "Hg (Sep 11, 3:00 PM)
Average79 °F82%29.88 "Hg
* Reported Sep 8 9:00 PM — Sep 23 9:00 PM, Belém, Weather by CustomWeather, © 2014

Note: Actual official high and low records may vary slightly from our data, if they occured in-between our weather recording intervals... More about our weather records

Advertising

Belém weather history for previous 24 hours

 ConditionsComfort  
Time TempWeatherWind HumidityBarometerVisibility
9:00 PM
Sep 23
79 °FClear.7 mph79%29.89 "Hg10 mi
8:00 PM79 °FClear.6 mph79%29.86 "Hg10 mi
7:00 PM79 °FPassing clouds.6 mph84%29.83 "HgN/A
6:00 PM79 °FScattered clouds.13 mph84%29.83 "HgN/A
5:00 PM77 °FBroken clouds.14 mph79%29.83 "HgN/A
4:00 PM81 °FThunderstorms. Partly sunny.12 mph84%29.83 "HgN/A
3:07 PMN/AThunderstorms.7 mphN/AN/A1 mi
3:00 PM48 °FThunderstorms. Broken clouds.15 mph100%29.83 "Hg2 mi
2:00 PM86 °FPartly sunny.10 mph70%29.86 "HgN/A
1:00 PM86 °FPartly sunny.8 mph70%29.89 "HgN/A
12:00 PM88 °FPartly sunny.5 mph52%29.92 "HgN/A
11:00 AM86 °FPartly sunny.12 mph62%29.95 "HgN/A
10:00 AM84 °FPartly sunny.9 mph70%29.95 "HgN/A
9:00 AM82 °FPassing clouds.15 mph74%29.92 "HgN/A
8:00 AM79 °FSunny.12 mph84%29.92 "Hg10 mi
7:00 AM75 °FPassing clouds.7 mph94%29.89 "HgN/A
6:00 AM75 °FPassing clouds.7 mph89%29.86 "HgN/A
5:00 AM75 °FClear.2 mph89%29.86 "Hg5 mi
4:00 AM75 °FClear.5 mph89%29.86 "Hg5 mi
3:00 AM75 °FClear.5 mph94%29.86 "Hg10 mi
2:00 AM77 °FClear.5 mph83%29.86 "Hg10 mi
1:00 AM77 °FClear.3 mph89%29.89 "Hg10 mi
12:00 AM77 °FClear.3 mph83%29.92 "Hg10 mi
11:00 PM
Sep 22
77 °FClear.5 mph83%29.92 "Hg10 mi
10:00 PM79 °FClear.6 mph79%29.92 "Hg10 mi
9:00 PM79 °FClear.9 mph79%29.89 "Hg10 mi
Weather by CustomWeather, © 2014

See weather overviewHow to use our weather pages